This is the latest recevied weather packets stored in our database for station/object JF2ZGN-13. If no packets are shown the sender has not sent any weather packets the latest 10 day(s).
| Time | Temp. | Humidity | Pressure | Rain* | Wind** | Luminosity | Snow |
|---|---|---|---|---|---|---|---|
| 1777774455 | 17.22° C | 51% | 906.5 hPa | 0 mm | - | - | - |
| 1777773854 | 16.67° C | 46% | 906.6 hPa | 0 mm | - | - | - |
| 1777773254 | 16.11° C | 37% | 906.6 hPa | 0 mm | - | - | - |
| 1777772654 | 16.11° C | 44% | 906.9 hPa | 0 mm | - | - | - |
| 1777772053 | 16.67° C | 43% | 907 hPa | 0 mm | - | - | - |
| 1777771452 | 16.11° C | 40% | 907.1 hPa | 0 mm | - | - | - |
| 1777770852 | 16.11° C | 35% | 907.2 hPa | 0 mm | - | - | - |
| 1777770252 | 17.22° C | 39% | 907.2 hPa | 0 mm | - | - | - |
| 1777769651 | 18.33° C | 43% | 907.3 hPa | 0 mm | - | - | - |
| 1777769051 | 18.33° C | 39% | 907.3 hPa | 0 mm | - | - | - |
| 1777768450 | 17.78° C | 37% | 907.2 hPa | 0 mm | - | - | - |
| 1777767850 | 17.78° C | 42% | 907.1 hPa | 0 mm | - | - | - |
| 1777767250 | 17.78° C | 35% | 907.1 hPa | 0 mm | - | - | - |
| 1777766649 | 17.78° C | 29% | 907.1 hPa | 0 mm | - | - | - |
| 1777766049 | 18.33° C | 32% | 907.1 hPa | 0 mm | - | - | - |
| 1777765448 | 17.78° C | 30% | 907.1 hPa | 0 mm | - | - | - |
| 1777764247 | 16.67° C | 32% | 906.7 hPa | 0 mm | - | - | - |
| 1777763647 | 16.11° C | 37% | 906.7 hPa | 0 mm | - | - | - |
| 1777763047 | 15.56° C | 37% | 906.6 hPa | 0 mm | - | - | - |
| 1777762446 | 15° C | 36% | 906.6 hPa | 0 mm | - | - | - |
| 1777761845 | 15° C | 37% | 906.6 hPa | 0 mm | - | - | - |
| 1777761244 | 14.44° C | 36% | 906.6 hPa | 0 mm | - | - | - |
| 1777760644 | 15° C | 38% | 906.6 hPa | 0 mm | - | - | - |
| 1777760044 | 15° C | 33% | 906.5 hPa | 0 mm | - | - | - |
| 1777759443 | 15° C | 34% | 906.4 hPa | 0 mm | - | - | - |
* Rain since midnight (hover to see other rain measurements)
** Current wind speed in m/s (hover to see current wind gust speed)